Location: Saluda
(35.2377°N, 82.3468°W)
Time: 15:29:40
(UTC+00:00)

SR - Visible Passes

Search period start: 03 October 2022 00:00
Search period end: 13 October 2022 00:00
Orbit: 573 x 879 km, 66.7° (Epoch: 02 October)

Date Brightness Start Highest point End Pass type
(mag) Time Alt. Az. Time Alt. Az. Time Alt. Az.
03 Oct ? 10:19:38 10° N 10:23:35 21° NE 10:27:18 10° E visible
04 Oct ? 00:44:48 10° SSE 00:45:36 13° SSE 00:45:36 13° SSE visible
04 Oct ? 09:31:27 10° NNE 09:32:47 11° NE 09:34:05 10° ENE visible
04 Oct ? 23:57:15 10° SE 23:59:18 13° ESE 23:59:18 13° ESE visible
05 Oct ? 01:35:20 10° SSW 01:38:51 39° SW 01:38:51 39° SW visible
05 Oct ? 10:20:36 10° N 10:25:28 37° NE 10:29:56 10° ESE visible
06 Oct ? 00:45:25 10° S 00:51:02 52° ESE 00:52:39 41° ENE visible
06 Oct ? 02:28:42 10° WSW 02:32:13 23° WNW 02:32:13 23° WNW visible
06 Oct ? 09:31:10 10° N 09:34:52 19° NE 09:38:21 10° E visible
06 Oct ? 23:56:23 10° SSE 00:01:04 26° ESE 00:05:49 10° NE visible
07 Oct ? 01:37:17 10° SW 01:42:52 44° WNW 01:45:54 25° N visible
07 Oct ? 10:21:56 10° NNW 10:27:09 72° ENE 10:31:52 10° SSE visible
08 Oct ? 00:46:41 10° SSW 00:52:33 86° WNW 00:58:29 10° NNE visible
08 Oct ? 02:32:17 10° WNW 02:35:26 14° NW 02:38:34 10° NNW visible
08 Oct ? 09:32:02 10° N 09:36:46 33° NE 09:41:06 10° ESE visible
08 Oct ? 23:56:51 10° S 00:02:25 47° ESE 00:08:03 10° NE visible
09 Oct ? 01:39:50 10° WSW 01:44:42 26° NW 01:49:35 10° N visible
09 Oct ? 08:42:43 10° N 08:46:07 17° NE 08:49:21 10° E visible
09 Oct ? 10:23:36 10° NW 10:28:38 57° WSW 10:33:13 10° S visible
10 Oct ? 00:48:31 10° SW 00:54:11 49° WNW 00:59:54 10° NNE visible
10 Oct ? 09:34:02 14° NNW 09:38:28 64° ENE 09:43:08 10° SE visible
10 Oct ? 23:58:01 10° SSW 00:03:53 87° ESE 00:09:50 10° NNE visible
11 Oct ? 01:43:13 10° W 01:46:41 16° NW 01:50:08 10° N visible
11 Oct ? 08:47:46 30° NE 08:48:02 30° NE 08:52:15 10° ESE visible
11 Oct ? 10:27:18 18° WNW 10:29:55 27° WSW 10:33:51 10° SSW visible
12 Oct ? 00:50:58 10° WSW 00:55:59 28° NW 01:01:00 10° N visible
12 Oct ? 09:40:53 52° SSW 09:40:53 52° SSW 09:44:33 10° SSE visible
